Weather History for FAGG - February, 2012

Change the Weather History Date:

Tuesday, February 14, 2012

  Actual Average Record
Temperature  
Mean Temperature 62 °F -  
Max Temperature 71 °F 74 °F 84 °F (2008)
Min Temperature 53 °F 58 °F 53 °F (2002)
Degree Days  
Heating Degree Days 3    
Growing Degree Days 12 (Base 50)    
Moisture  
Dew Point 56 °F    
Average Humidity 77    
Maximum Humidity 94    
Minimum Humidity 50    
Precipitation  
Precipitation 0.00 in - - ()
Sea Level Pressure  
Sea Level Pressure 29.92 in    
Wind  
Wind Speed 4 mph ()    
Max Wind Speed 10 mph    
Max Gust Speed -    
Visibility 8.2 miles    
Events      
Averages and records for this station are not official NWS values.
T = Trace of Precipitation, MM = Missing Value Source: Averaged Metar Reports

Daily Weather History Graph

Daily Weather History Graph

Search for Another Location

Airport or City:

Trip Planner

Search our weather history database for the weather conditions in past years. The results will help you decide how hot, cold, wet, or windy it might be!

Date:

Astronomy

Feb. 14, 2012 Rise Set
Actual Time 6:04 AM SAST 7:24 PM SAST
Civil Twilight 5:37 AM SAST 7:51 PM SAST
Nautical Twilight 5:06 AM SAST 8:22 PM SAST
Astronomical Twilight 4:33 AM SAST 8:55 PM SAST
Moon 11:36 PM SAST (2/14) 1:06 PM SAST (2/14)
Length of Visible Light 14h 13m
Length of Day
13h 20m
Waning Gibbous, 54% of the Moon is Illuminated
Feb 14
Waning Gibbous
Feb 14
Last Quarter
Feb 22
New
Mar 1
First Quarter
Mar 8
Full

Hourly Weather History & Observations

Time (SAST) Temp. Dew Point Humidity Pressure Visibility Wind Dir Wind Speed Gust Speed Precip Events Conditions
12:00 AM 57.2 °F 53.6 °F 88% 29.95 in 6.2 mi NNW 3.5 mph - N/A   Scattered Clouds
1:00 AM 57.2 °F 53.6 °F 88% 29.95 in 6.2 mi NW 3.5 mph - N/A   Scattered Clouds
2:00 AM 56 °F 53 °F 86% 29.93 in 19 mi NNW 2.3 mph - -  
2:00 AM 57.2 °F 53.6 °F 88% 29.92 in - NNW 2.3 mph - N/A   Clear
3:00 AM 53.6 °F 51.8 °F 94% 29.89 in - NNE 3.5 mph - N/A   Clear
4:00 AM 53.6 °F 51.8 °F 94% 29.89 in - NW 3.5 mph - N/A   Clear
5:00 AM 53 °F 52 °F 93% 29.90 in 12 mi North 2.3 mph - -  
5:00 AM 53.6 °F 51.8 °F 94% 29.89 in - North 2.3 mph - N/A   Clear
6:00 AM 55.4 °F 53.6 °F 94% 29.89 in - Variable 2.3 mph - N/A   Clear
7:00 AM 55.4 °F 53.6 °F 94% 29.89 in - NNW 2.3 mph - N/A   Clear
7:20 AM 59.0 °F 57.2 °F 94% 29.89 in - NW 2.3 mph - N/A   Clear
8:00 AM 63 °F 57 °F 76% 29.90 in 12 mi 2.3 mph - -  
8:00 AM 62.6 °F 57.2 °F 82% 29.89 in - Variable 2.3 mph - N/A   Clear
8:43 AM 66.2 °F 57.2 °F 73% 29.89 in - Variable 1.2 mph - N/A   Clear
9:00 AM 68.0 °F 57.2 °F 68% 29.89 in 6.2 mi Variable 1.2 mph - N/A   Partly Cloudy
10:00 AM 68.0 °F 57.2 °F 68% 29.89 in 6.2 mi South 4.6 mph - N/A   Scattered Clouds
11:00 AM 69 °F 59 °F 61% 29.88 in 12 mi South 10.4 mph - -   Partly Cloudy
11:00 AM 69.8 °F 59.0 °F 68% 29.89 in 6.2 mi South 10.4 mph - N/A   Scattered Clouds
12:00 PM 68.0 °F 59.0 °F 73% 29.89 in 6.2 mi South 10.4 mph - N/A   Mostly Cloudy
1:00 PM 69.8 °F 57.2 °F 64% 29.89 in 6.2 mi South 8.1 mph - N/A   Mostly Cloudy
2:00 PM 69 °F 58 °F 58% 29.90 in 12 mi South 8.1 mph - -   Mostly Cloudy
2:00 PM 69.8 °F 55.4 °F 60% 29.89 in 6.2 mi South 6.9 mph - N/A   Mostly Cloudy
3:00 PM 71.6 °F 55.4 °F 57% 29.89 in 6.2 mi South 6.9 mph - N/A   Scattered Clouds
4:00 PM 69.8 °F 53.6 °F 56% 29.89 in 6.2 mi SSE 6.9 mph - N/A   Partly Cloudy
5:00 PM 69 °F 54 °F 50% 29.93 in 12 mi South 8.1 mph - -   Scattered Clouds
5:00 PM 69.8 °F 53.6 °F 56% 29.92 in 6.2 mi South 8.1 mph - N/A   Partly Cloudy
6:00 PM 68.0 °F 55.4 °F 64% 29.92 in 6.2 mi South 9.2 mph - N/A   Scattered Clouds
7:00 PM 64.4 °F 57.2 °F 77% 29.95 in 6.2 mi South 4.6 mph - N/A   Scattered Clouds
8:00 PM 64 °F 58 °F 77% 29.98 in 12 mi SSW 3.5 mph - -   Mostly Cloudy
8:00 PM 64.4 °F 59.0 °F 83% 29.98 in 6.2 mi SSW 3.5 mph - N/A   Mostly Cloudy
9:00 PM 64.4 °F 59.0 °F 83% 29.98 in 6.2 mi Variable 2.3 mph - N/A   Overcast
10:00 PM 64.4 °F 59.0 °F 83% 30.01 in 6.2 mi NNE 3.5 mph - N/A   Mostly Cloudy
11:00 PM 62.6 °F 60.8 °F 94% 29.98 in 6.2 mi NW 5.8 mph - N/A   Overcast